Tracking 30995 objects as of 5-Jul-2025
HD Live streaming from Space Station
objects crossing your sky now

COSMOS 839 DEB

Track COSMOS 839 DEB now!
10-day predictions


NORAD ID: 10444
Int'l Code: 1976-067V
Perigee: 881.6 km
Apogee: 2,048.7 km
Inclination: 65.8 °
Period: 115.1 minutes
Semi major axis: 7836 km
RCS: 0.0139 m2 (small)
Launch date: July 8, 1976
Source: Commonwealth of Independent States (former USSR) (CIS)
Launch site: PLESETSK MISSILE AND SPACE COMPLEX (PKMTR)

Note: This is SATELLITE DEBRIS
Your satellite tracking list
STARLINK-3631
Track 1 satellite(s)




NASA's NSSDC Master Catalog

Two Line Element Set (TLE):
1 10444U 76067V   25184.79564233 -.00000078  00000-0 -46021-4 0  9992
2 10444  65.7964  49.6089 0744714 352.5828   6.4622 12.51547910235542
Source of the keplerian elements: AFSPC